Regional Weather Roundup
Issued by NWS Bismarck, ND

Home | Current Version | Previous Version | Text Only | Print | Product List | Glossary On
Versions: 1 2 3 4 5 6 7 8 9 10 11 12 13 14 15 16 17 18 19 20 21 22 23 24 25 26 27 28 29 30 31 32 33 34 35 36 37 38 39 40 41 42 43 44 45 46 47 48 49 50
000
ASUS43 KBIS 100510
RWRBIS

NWR BROADCAST TEXT
NATIONAL WEATHER SERVICE BISMARCK ND
1100 PM CST FRI DEC 09 2016

NOTE: "FAIR" INDICATES FEW OR NO CLOUDS BELOW 12,000 FEET WITH NO
SIGNIFICANT WEATHER AND/OR OBSTRUCTIONS TO VISIBILITY.


CITY           SKY/WX    TMP DP  RH WIND       PRES   REMARKS
WILLISTON      CLOUDY   -16 -20  82 NE3       30.44F
MINOT          CLOUDY   -15 -20  78 SW8       30.48S WCI -32
MINOT AFB      CLOUDY   -20 -26  74 W5        30.48S WCI -33
BISMARCK       CLOUDY   -17 -21  82 CALM      30.52S
DICKINSON      CLOUDY   -14 -19  79 S6        30.33F WCI -28
GARRISON         N/A    -17 -21  82 CALM      30.46F
HETTINGER ARPT CLOUDY    -9 -14  78 E5        30.35F WCI -20
JAMESTOWN      CLOUDY   -13 -18  78 NW9       30.51S WCI -31
CARRINGTON     FAIR     -15 -20  76 W10       30.53R WCI -35
HAZEN          CLOUDY   -17 -24  70 CALM      30.50F
RUGBY            N/A    -20 -26  76 W5        30.50F WCI -33
STANLEY        FAIR     -18 -22  83 CALM      30.42F
TIOGA          FAIR     -20 -24  83 S7        30.42S WCI -37
WATFORD CITY   FAIR     -20 -26  76 CALM      30.42F
$$

CITY           SKY/WX    TMP DP  RH WIND       PRES   REMARKS
GRAND FORKS    CLOUDY    -4  -9  79 NW5       30.56S WCI -15
GRAND FORKS AF FLURRIES  -4 -11  71 N8        30.56S WCI -19
DEVILS LAKE    CLOUDY   -14 -18  82 W6        30.52  WCI -28
FARGO          CLOUDY    -5 -13  68 W7        30.56F WCI -19
CANDO          FAIR     -15 -20  76 W5        30.53S WCI -27
CAVALIER         N/A     -8 N/A N/A NW7       30.56S WCI -22
GRAFTON        FAIR      -4  -9  77 NW8       30.59R WCI -19
GWINNER        FAIR      -6 -13  71 NW9       30.54S WCI -22
LANGDON        FAIR     -13 -18  77 NW8       30.48R WCI -30
ROLLA          FAIR     -18 -24  76 W5        30.46S WCI -31
WALHALLA         N/A     -8  -8 100 NW5       30.56S WCI -19
$$

CITY           SKY/WX    TMP DP  RH WIND       PRES   REMARKS
ABERDEEN       CLOUDY    -5 -12  72 N8        30.54S WCI -20
MOBRIDGE       CLOUDY    -5 -11  75 NW5       30.46F WCI -16
BUFFALO          N/A     -4  -8  83 SE7       30.20S WCI -18
RAPID CITY     CLOUDY     2  -3  80 S9        30.28S WCI -13
GLASGOW        CLOUDY    -4  -9  79 E15       30.29F WCI -25
SIDNEY         CLOUDY   -10 -15  78 N3        30.43F
WOLF POINT     CLOUDY    -6 -13  71 E8        30.40F WCI -21
GLENDIVE       CLOUDY    -9 -14  78 E7        30.33F WCI -24
MILES CITY     CLOUDY     3  -2  79 E7        30.24F WCI  -9
BAKER          CLOUDY    -5 -10  79 E12       30.26F WCI -23
$$

CITY           SKY/WX    TMP DP  RH WIND       PRES   REMARKS
BILLINGS       LGT SNOW   5   2  87 NE6       30.08F FOG     WCI  -6
GREAT FALLS    CLOUDY     0  -4  83 NE3       30.03F
REGINA         CLEAR    -17 -22  76 S7        30.41F WCI -33
ESTEVAN        PTCLDY   -18 -24  76 W3        30.44F
$$





USA.gov is the U.S. government's official web portal to all federal, state and local government web resources and services.